IZ0QWM-13 Scandriglia IT current weather conditions

sailwx.info

Air temperature 17.2° C
Dewpoint 9.1° C

Last reported at 2017-Sep-23 19:04 UTC.
Time now 2017-Sep-23 20:10 UTC

Location: N 42°10' E 012°47'.
View on Google Maps.

See reports from other nearby stations

  
Tides and Currents Weather Stations Pressure Air Temp Water Temp Dewpoint Dewpoint Depression Visibility Wind Speed Wind Dir Waves Ship Positions
date/time (UTC)wind fromknots sea level pressurealtimeterstation pressurevisibilityair tempwater tempwave heightnotes
2017-Sep-23 19:04 17.2
2017-Sep-23 18:54 17.2
2017-Sep-23 18:44 230 0 gusting 0 17.8
2017-Sep-23 18:34 230 0 gusting 0 17.8
2017-Sep-23 18:24 090 0 gusting 0 17.8
2017-Sep-23 18:14 090 0 gusting 0 17.8
2017-Sep-23 18:04 040 0 gusting 0 17.8
2017-Sep-23 17:54 010 0 gusting 0 18.9
2017-Sep-23 17:44 010 0 gusting 0 18.9
2017-Sep-23 17:34 050 0 gusting 0 20.0
2017-Sep-23 17:24 050 0 gusting 0 20.0
2017-Sep-23 17:14 050 0 gusting 0 20.0
2017-Sep-23 17:04 050 0 gusting 0 21.1
2017-Sep-23 16:54 050 0 gusting 0 21.1
2017-Sep-23 16:44 090 1 gusting 1 22.2
2017-Sep-23 16:34 090 1 gusting 1 22.2
2017-Sep-23 16:24 050 0 gusting 0 22.2
2017-Sep-23 16:14 050 0 gusting 0 22.2
2017-Sep-23 16:04 050 0 gusting 0 22.2
2017-Sep-23 15:54 050 0 gusting 0 22.2
2017-Sep-23 15:44 050 0 gusting 0 22.2
2017-Sep-23 15:34 090 1 gusting 1 22.8
2017-Sep-23 15:24 060 0 gusting 0 23.9
2017-Sep-23 15:14 060 0 gusting 0 23.9
2017-Sep-23 15:04 090 0 gusting 0 23.9
2017-Sep-23 14:54 270 0 gusting 0 25.0
2017-Sep-23 14:44 140 0 gusting 0 25.0
2017-Sep-23 14:34 140 0 gusting 0 25.0
2017-Sep-23 14:24 270 0 gusting 0 25.0
2017-Sep-23 14:14 270 0 gusting 0 25.0
2017-Sep-23 14:04 320 0 gusting 0 25.0
2017-Sep-23 13:54 320 0 gusting 0 25.0
2017-Sep-23 13:44 120 0 gusting 0 25.0
2017-Sep-23 13:34 120 0 gusting 0 25.0
2017-Sep-23 13:24 270 0 gusting 0 25.0
2017-Sep-23 13:14 270 0 gusting 0 25.0
2017-Sep-23 13:04 320 0 gusting 0 25.0
2017-Sep-23 12:54 320 0 gusting 0 25.0
2017-Sep-23 12:44 050 0 gusting 0 25.0
2017-Sep-23 12:34 050 0 gusting 0 25.0
2017-Sep-23 12:24 270 0 gusting 0 25.0
2017-Sep-23 12:14 270 0 gusting 0 25.0
2017-Sep-23 12:04 23.9
2017-Sep-23 11:54 23.9
2017-Sep-23 11:44 23.9
2017-Sep-23 11:34 23.9
2017-Sep-23 11:24 190 0 gusting 0 23.9
2017-Sep-23 11:14 190 0 gusting 0 23.9
2017-Sep-23 11:04 340 0 gusting 0 22.8
2017-Sep-23 10:54 340 0 gusting 0 22.8
2017-Sep-23 10:44 340 0 gusting 0 22.8
2017-Sep-23 10:34 22.8
2017-Sep-23 10:24 22.8
2017-Sep-23 10:14 320 0 gusting 0 22.8
2017-Sep-23 10:04 230 0 gusting 0 22.2
2017-Sep-23 09:54 270 0 gusting 0 22.8
2017-Sep-23 09:43 270 0 gusting 0 22.8
2017-Sep-23 09:33 320 0 gusting 0 22.2
2017-Sep-23 09:23 310 0 gusting 0 21.1
2017-Sep-23 09:13 310 0 gusting 0 21.1
2017-Sep-23 09:03 230 0 gusting 0 21.1
2017-Sep-23 08:53 310 0 gusting 0 17.8
2017-Sep-23 08:43 230 0 gusting 0 16.1
2017-Sep-23 08:33 230 0 gusting 0 16.1
2017-Sep-23 08:23 270 0 gusting 0 16.1
2017-Sep-23 08:13 270 0 gusting 0 16.1
2017-Sep-23 08:03 230 0 gusting 0 13.9
2017-Sep-23 07:53 230 0 gusting 0 13.9
2017-Sep-23 07:43 270 0 gusting 0 12.8
2017-Sep-23 07:33 270 0 gusting 0 12.8
2017-Sep-23 07:23 210 0 gusting 0 12.2
2017-Sep-23 07:13 210 0 gusting 0 12.2
2017-Sep-23 07:03 230 0 gusting 0 11.1
2017-Sep-23 06:53 230 0 gusting 0 11.1
2017-Sep-23 06:43 230 0 gusting 0 11.1
2017-Sep-23 06:33 230 0 gusting 0 11.1
2017-Sep-23 06:23 160 0 gusting 0 11.1
2017-Sep-23 06:13 160 0 gusting 0 11.1
2017-Sep-23 06:03 190 0 gusting 0 10.0
2017-Sep-23 05:53 190 0 gusting 0 10.0
2017-Sep-23 05:43 190 0 gusting 0 10.0
2017-Sep-23 05:33 160 0 gusting 0 10.0
2017-Sep-23 05:23 160 0 gusting 0 10.0
2017-Sep-23 05:13 170 0 gusting 0 10.0
2017-Sep-23 05:03 180 0 gusting 0 10.0
2017-Sep-23 04:53 190 0 gusting 0 10.0
2017-Sep-23 04:43 190 0 gusting 0 10.0
2017-Sep-23 04:33 200 0 gusting 0 10.0
2017-Sep-23 04:23 200 0 gusting 0 10.0
2017-Sep-23 04:13 230 0 gusting 0 10.0
2017-Sep-23 04:03 230 0 gusting 0 10.0
2017-Sep-23 03:53 200 0 gusting 0 11.1
2017-Sep-23 03:43 200 0 gusting 0 11.1
2017-Sep-23 03:33 270 0 gusting 0 11.1
2017-Sep-23 03:23 230 0 gusting 0 11.1
2017-Sep-23 03:13 230 0 gusting 0 11.1
2017-Sep-23 03:03 230 0 gusting 0 11.1
2017-Sep-23 02:53 230 0 gusting 0 11.1
2017-Sep-23 02:43 230 0 gusting 0 11.1
2017-Sep-23 02:33 170 0 gusting 0 11.1
2017-Sep-23 02:23 170 0 gusting 0 11.1
2017-Sep-23 02:13 170 0 gusting 0 11.1
2017-Sep-23 02:03 170 0 gusting 0 11.1
2017-Sep-23 01:53 180 0 gusting 0 11.1
2017-Sep-23 01:43 190 0 gusting 0 12.2
2017-Sep-23 01:33 190 0 gusting 0 12.2
2017-Sep-23 01:23 190 0 gusting 0 12.2
2017-Sep-23 01:13 230 0 gusting 0 12.2
2017-Sep-23 01:03 220 0 gusting 0 12.2
2017-Sep-23 00:53 160 0 gusting 0 12.2
2017-Sep-23 00:43 160 0 gusting 0 12.2
2017-Sep-23 00:33 190 0 gusting 0 11.1
2017-Sep-23 00:23 190 0 gusting 0 11.1
2017-Sep-23 00:13 180 0 gusting 0 11.1
2017-Sep-23 00:03 180 0 gusting 0 12.2
2017-Sep-22 23:53 180 0 gusting 0 12.2
2017-Sep-22 23:43 180 0 gusting 0 12.2
2017-Sep-22 23:33 230 0 gusting 0 12.2
2017-Sep-22 23:23 230 0 gusting 0 12.2
2017-Sep-22 23:13 190 0 gusting 0 12.2
2017-Sep-22 23:03 220 0 gusting 0 12.2
2017-Sep-22 22:53 220 0 gusting 0 12.2
2017-Sep-22 22:43 220 0 gusting 0 12.2
2017-Sep-22 22:33 12.8
2017-Sep-22 22:23 12.8
2017-Sep-22 22:13 12.8
2017-Sep-22 22:03 230 0 gusting 0 12.8
2017-Sep-22 21:53 230 0 gusting 0 12.8
2017-Sep-22 21:43 180 0 gusting 0 12.8
2017-Sep-22 21:33 180 0 gusting 0 12.8
2017-Sep-22 21:23 180 0 gusting 0 12.8
2017-Sep-22 21:13 200 0 gusting 0 13.9
2017-Sep-22 21:03 180 0 gusting 0 13.9
2017-Sep-22 20:53 180 0 gusting 0 13.9
2017-Sep-22 20:43 190 0 gusting 0 13.9
2017-Sep-22 20:33 190 0 gusting 0 13.9
2017-Sep-22 20:23 180 0 gusting 0 13.9
2017-Sep-22 20:13 180 0 gusting 0 13.9
2017-Sep-22 20:03 240 0 gusting 0 15.0
2017-Sep-22 19:53 240 0 gusting 0 15.0
2017-Sep-22 19:43 190 0 gusting 0 16.1
2017-Sep-22 19:34 190 0 gusting 0 16.1
2017-Sep-22 19:27 190 0 gusting 0 16.1
2017-Sep-22 19:13 200 0 gusting 0 16.1
2017-Sep-22 19:03 170 0 gusting 0 17.2
2017-Sep-22 18:53 170 0 gusting 0 17.2
2017-Sep-22 18:43 270 0 gusting 0 17.8
2017-Sep-22 18:33 270 0 gusting 0 17.8
2017-Sep-22 18:23 270 0 gusting 0 17.8
2017-Sep-22 18:13 270 0 gusting 0 17.8
2017-Sep-22 18:03 150 1 gusting 1 20.0
2017-Sep-22 17:53 150 1 gusting 1 20.0
2017-Sep-22 17:43 150 1 gusting 1 20.0
2017-Sep-22 17:33 150 1 gusting 1 20.0
2017-Sep-22 17:23 150 0 gusting 0 21.1
2017-Sep-22 17:13 150 0 gusting 0 21.1
2017-Sep-22 17:03 170 0 gusting 0 22.2
2017-Sep-22 16:53 170 0 gusting 0 22.2
2017-Sep-22 16:43 170 0 gusting 0 22.2
2017-Sep-22 16:33 210 0 gusting 0 23.9
2017-Sep-22 16:23 270 0 gusting 0 23.9
2017-Sep-22 16:13 270 0 gusting 0 23.9
2017-Sep-22 16:03 270 0 gusting 0 25.0
2017-Sep-22 15:53 270 0 gusting 0 25.0
2017-Sep-22 15:43 270 0 gusting 0 25.0
2017-Sep-22 15:33 140 0 gusting 0 25.0
2017-Sep-22 15:23 140 0 gusting 0 25.0
2017-Sep-22 15:13 230 0 gusting 0 25.0
2017-Sep-22 15:03 320 0 gusting 0 25.0
2017-Sep-22 14:53 320 0 gusting 0 25.0
2017-Sep-22 14:43 340 0 gusting 0 26.1
2017-Sep-22 14:33 340 0 gusting 0 26.1
2017-Sep-22 14:23 330 0 gusting 0 25.0
2017-Sep-22 14:13 330 0 gusting 0 25.0
2017-Sep-22 14:03 320 0 gusting 0 25.0
2017-Sep-22 13:53 320 0 gusting 0 25.0
2017-Sep-22 13:43 320 0 gusting 0 25.0
2017-Sep-22 13:33 320 0 gusting 0 25.0
2017-Sep-22 13:23 320 0 gusting 0 25.0
2017-Sep-22 13:13 340 0 gusting 0 25.0
2017-Sep-22 13:03 180 0 gusting 0 25.0
2017-Sep-22 12:53 180 0 gusting 0 25.0
2017-Sep-22 12:43 150 0 gusting 0 25.0
2017-Sep-22 12:33 150 0 gusting 0 25.0
2017-Sep-22 12:23 150 0 gusting 0 25.0
2017-Sep-22 12:13 160 0 gusting 0 25.0
2017-Sep-22 12:03 340 0 gusting 0 25.0
2017-Sep-22 11:53 330 0 gusting 0 23.9
2017-Sep-22 11:43 330 0 gusting 0 23.9
2017-Sep-22 11:33 320 0 gusting 0 23.9
2017-Sep-22 11:23 320 0 gusting 0 23.9
2017-Sep-22 11:13 320 0 gusting 0 23.9
2017-Sep-22 11:03 320 0 gusting 0 22.8
2017-Sep-22 10:53 320 0 gusting 0 22.8
2017-Sep-22 10:43 190 0 gusting 0 22.8
2017-Sep-22 10:33 190 0 gusting 0 22.8
2017-Sep-22 10:23 190 0 gusting 0 22.8
2017-Sep-22 10:13 22.8
2017-Sep-22 10:03 240 0 gusting 0 22.8
2017-Sep-22 09:53 270 0 gusting 0 22.2
2017-Sep-22 09:43 270 0 gusting 0 22.2
2017-Sep-22 09:33 270 0 gusting 0 22.2
2017-Sep-22 09:23 270 0 gusting 0 22.2
2017-Sep-22 09:13 270 0 gusting 0 21.1
2017-Sep-22 09:03 300 0 gusting 0 20.0
2017-Sep-22 08:53 270 0 gusting 0 17.8
2017-Sep-22 08:43 270 0 gusting 0 17.8
2017-Sep-22 08:33 270 0 gusting 0 15.0
2017-Sep-22 08:23 270 0 gusting 0 15.0
2017-Sep-22 08:13 240 0 gusting 0 15.0
2017-Sep-22 08:03 210 0 gusting 0 12.8
2017-Sep-22 07:53 210 0 gusting 0 12.8
2017-Sep-22 07:43 210 0 gusting 0 12.2
2017-Sep-22 07:33 210 0 gusting 0 12.2
2017-Sep-22 07:23 270 0 gusting 0 11.1
2017-Sep-22 07:13 270 0 gusting 0 11.1
2017-Sep-22 07:03 170 0 gusting 0 10.0
2017-Sep-22 06:53 170 0 gusting 0 10.0
2017-Sep-22 06:43 170 0 gusting 0 10.0
2017-Sep-22 06:33 160 0 gusting 0 10.0
2017-Sep-22 06:23 160 0 gusting 0 10.0
2017-Sep-22 06:13 170 0 gusting 0 10.0
2017-Sep-22 06:03 230 0 gusting 0 10.0
2017-Sep-22 05:53 230 0 gusting 0 10.0
2017-Sep-22 05:43 230 0 gusting 0 10.0
2017-Sep-22 05:33 220 0 gusting 0 10.0
2017-Sep-22 05:23 220 0 gusting 0 10.0
2017-Sep-22 05:13 170 0 gusting 0 10.0
2017-Sep-22 05:03 170 0 gusting 0 10.0
2017-Sep-22 04:53 230 0 gusting 0 10.0
2017-Sep-22 04:43 230 0 gusting 0 10.0
2017-Sep-22 04:33 160 0 gusting 0 10.0
2017-Sep-22 04:23 180 0 gusting 0 10.0
2017-Sep-22 04:13 180 0 gusting 0 10.0
2017-Sep-22 04:03 210 0 gusting 0 10.0
2017-Sep-22 03:53 210 0 gusting 0 10.0
2017-Sep-22 03:43 210 0 gusting 0 10.0
2017-Sep-22 03:33 170 0 gusting 0 10.0
2017-Sep-22 03:23 170 0 gusting 0 10.0
2017-Sep-22 03:13 160 0 gusting 0 10.0
2017-Sep-22 03:03 180 0 gusting 0 10.0
2017-Sep-22 02:53 180 0 gusting 0 10.0
2017-Sep-22 02:43 180 0 gusting 0 10.0
2017-Sep-22 02:33 180 0 gusting 0 10.0
2017-Sep-22 02:23 180 0 gusting 0 10.0
2017-Sep-22 02:13 210 0 gusting 0 10.0
2017-Sep-22 02:03 10.0
2017-Sep-22 01:53 10.0
2017-Sep-22 01:43 180 0 gusting 0 10.0
2017-Sep-22 01:33 180 0 gusting 0 10.0
2017-Sep-22 01:23 180 0 gusting 0 10.0
2017-Sep-22 01:13 230 0 gusting 0 10.0
2017-Sep-22 01:03 270 0 gusting 0 11.1
2017-Sep-22 00:53 270 0 gusting 0 11.1
2017-Sep-22 00:43 270 0 gusting 0 11.1
2017-Sep-22 00:33 230 0 gusting 0 11.1
2017-Sep-22 00:23 230 0 gusting 0 11.1
2017-Sep-22 00:13 11.1
2017-Sep-22 00:03 230 0 gusting 0 11.1
2017-Sep-21 23:53 230 0 gusting 0 11.1
2017-Sep-21 23:43 230 0 gusting 0 11.1
2017-Sep-21 23:33 270 0 gusting 0 11.1
2017-Sep-21 23:23 270 0 gusting 0 11.1
2017-Sep-21 23:13 270 0 gusting 0 11.1
2017-Sep-21 23:03 12.2
2017-Sep-21 22:53 270 0 gusting 0 12.2
2017-Sep-21 22:43 270 0 gusting 0 12.2
2017-Sep-21 22:33 230 0 gusting 0 12.2
2017-Sep-21 22:23 230 0 gusting 0 12.2
2017-Sep-21 22:13 240 0 gusting 0 12.2
2017-Sep-21 22:03 270 0 gusting 0 12.2
2017-Sep-21 21:53 270 0 gusting 0 12.2
2017-Sep-21 21:43 230 0 gusting 0 12.8
2017-Sep-21 21:33 230 0 gusting 0 12.8
2017-Sep-21 21:23 230 0 gusting 0 12.8
2017-Sep-21 21:13 230 0 gusting 0 12.8
2017-Sep-21 21:03 270 0 gusting 0 12.8
2017-Sep-21 20:53 200 0 gusting 0 12.8
2017-Sep-21 20:43 200 0 gusting 0 12.8
2017-Sep-21 20:33 190 0 gusting 0 13.9
2017-Sep-21 20:23 190 0 gusting 0 13.9
2017-Sep-21 20:13 270 0 gusting 0 13.9
2017-Sep-21 20:03 200 0 gusting 0 15.0